            UTC date,        Decimal date,     TCCON,      CAMS,       CSU,        OU, TM5-4DVAR,      Ames,        CT,        UT,      LoFI,     Baker,  CMS-Flux
 2014-07-01 06:00:22,   2014.496576040081,  392.2000,       nan,       nan,  398.0546,       nan,       nan,       nan,       nan,  394.0739,  396.8500,       nan
 2014-07-01 06:30:36,   2014.496633561644,  392.3125,       nan,       nan,  398.0546,       nan,       nan,       nan,       nan,  394.0740,  396.8100,       nan
 2014-07-01 06:56:45,   2014.496683314307,  392.3363,       nan,       nan,  398.1486,       nan,       nan,       nan,       nan,  394.2141,  396.7100,       nan
 2014-07-01 07:28:43,   2014.496744133688,  392.3333,       nan,       nan,  398.1486,       nan,       nan,       nan,       nan,  394.2141,  396.6700,       nan
 2014-07-01 07:59:11,   2014.496802099188,  392.4818,       nan,       nan,  398.0738,       nan,       nan,       nan,       nan,  394.3125,  396.5800,       nan
 2014-07-01 08:30:07,   2014.496860952562,  392.4637,       nan,       nan,  398.0738,       nan,       nan,       nan,       nan,  394.3124,  396.5400,       nan
 2014-07-01 08:54:41,   2014.496907692796,  392.4714,       nan,       nan,  398.0734,       nan,       nan,       nan,       nan,  394.3127,  396.5000,       nan
 2014-07-01 13:06:39,   2014.497387081431,  392.3600,       nan,       nan,  397.5693,       nan,       nan,       nan,       nan,  393.9634,  396.2800,       nan
 2014-07-01 13:16:34,   2014.497405948757,  391.9667,       nan,       nan,  397.5696,       nan,       nan,       nan,       nan,  393.9636,  396.2800,       nan
 2014-07-02 06:02:27,   2014.499319729833,  393.5429,       nan,       nan,  397.8071,       nan,       nan,       nan,       nan,  393.8385,  396.2400,       nan
 2014-07-02 06:28:09,   2014.499368626332,  393.6000,       nan,       nan,  397.8075,       nan,       nan,       nan,       nan,  393.8391,  396.2300,       nan
 2014-07-02 06:59:50,   2014.499428906646,  393.6818,       nan,       nan,  397.9260,       nan,       nan,       nan,       nan,  394.0007,  396.1600,       nan
 2014-07-02 07:31:33,   2014.499489250381,  393.3300,       nan,       nan,  397.8706,       nan,       nan,       nan,       nan,  394.0014,  396.1300,       nan
 2014-07-02 07:57:26,   2014.499538495687,  393.3666,       nan,       nan,  397.9549,       nan,       nan,       nan,       nan,  394.1150,  396.0600,       nan
 2014-07-02 08:28:02,   2014.499596714865,  392.9500,       nan,       nan,  397.9557,       nan,       nan,       nan,       nan,  394.1157,  396.0300,       nan
 2014-07-02 08:48:52,   2014.499636352105,  392.9000,       nan,       nan,  397.9565,       nan,       nan,       nan,       nan,  394.1163,  396.0100,       nan
 2014-07-05 10:39:16,   2014.508065575850,  392.9500,       nan,       nan,  396.9543,       nan,       nan,       nan,       nan,  392.5569,  394.9800,       nan
 2014-07-05 11:00:24,   2014.508105783866,  392.9125,       nan,       nan,  396.8720,       nan,       nan,       nan,       nan,  392.4273,  395.0000,       nan
 2014-07-05 11:20:37,   2014.508144247844,  392.7667,       nan,       nan,  396.8719,       nan,       nan,       nan,       nan,  392.4272,  394.9900,       nan
 2014-07-06 06:02:49,   2014.510279331558,  393.2125,       nan,       nan,  396.5550,       nan,       nan,       nan,       nan,  392.5335,  395.4300,       nan
 2014-07-06 06:20:24,   2014.510312785388,  393.0500,       nan,       nan,  396.5554,       nan,       nan,       nan,       nan,  392.5339,  395.4200,       nan
 2014-07-06 08:03:17,   2014.510508529934,  392.8000,       nan,       nan,  396.6981,       nan,       nan,       nan,       nan,  392.8996,  395.1900,       nan
 2014-07-06 08:21:39,   2014.510543474125,  392.6900,       nan,       nan,  396.6973,       nan,       nan,       nan,       nan,  392.8991,  395.1700,       nan
 2014-07-06 08:59:54,   2014.510616248097,  392.8000,       nan,       nan,  396.6965,       nan,       nan,       nan,       nan,  392.8986,  395.1200,       nan
 2014-07-06 09:20:09,   2014.510654775495,  392.8000,       nan,       nan,  396.5465,       nan,       nan,       nan,       nan,  392.9411,  395.1000,       nan
 2014-07-06 11:37:08,   2014.510915398275,  393.0000,       nan,       nan,  396.3906,       nan,       nan,       nan,       nan,  392.9413,  394.9300,       nan
 2014-07-06 11:50:11,   2014.510940227042,  392.6000,       nan,       nan,  396.3906,       nan,       nan,       nan,       nan,  392.9413,  394.9200,       nan
 2014-07-06 14:32:00,   2014.511248097413,  392.5000,       nan,       nan,  395.8249,       nan,       nan,       nan,       nan,  392.7084,  394.9400,       nan
 2014-07-07 06:02:58,   2014.513019342973,  393.3400,       nan,       nan,  396.6725,       nan,       nan,       nan,       nan,  394.4477,  395.1100,       nan
 2014-07-07 06:28:01,   2014.513067002790,  393.1334,       nan,       nan,  396.6725,       nan,       nan,       nan,       nan,  394.4477,  395.0900,       nan
 2014-07-07 06:58:04,   2014.513124175545,  393.0778,       nan,       nan,  396.8609,       nan,       nan,       nan,       nan,  394.5820,  395.0200,       nan
 2014-07-07 07:28:07,   2014.513181348300,  393.3222,       nan,       nan,  396.8606,       nan,       nan,       nan,       nan,  394.5819,  394.9900,       nan
 2014-07-07 07:58:10,   2014.513238521055,  393.1611,       nan,       nan,  396.8752,       nan,       nan,       nan,       nan,  394.6764,  394.9200,       nan
 2014-07-07 08:28:17,   2014.513295820649,  393.2056,       nan,       nan,  396.8759,       nan,       nan,       nan,       nan,  394.6765,  394.8800,       nan
 2014-07-07 08:57:32,   2014.513351471334,  393.1800,       nan,       nan,  396.8759,       nan,       nan,       nan,       nan,  394.6765,  394.8500,       nan
 2014-07-07 09:28:30,   2014.513410388128,  393.2944,       nan,       nan,  396.7217,       nan,       nan,       nan,       nan,  394.4447,  394.8000,       nan
 2014-07-07 09:58:37,   2014.513467687722,  393.4071,       nan,       nan,  396.8287,       nan,       nan,       nan,       nan,  394.5256,  394.7400,       nan
 2014-07-07 10:25:37,   2014.513519057585,  393.2000,       nan,       nan,  396.8291,       nan,       nan,       nan,       nan,  394.5259,  394.7000,       nan
 2014-07-07 11:09:57,   2014.513603405632,  393.3750,       nan,       nan,  396.5321,       nan,       nan,       nan,       nan,  394.4450,  394.6600,       nan
 2014-07-07 11:27:21,   2014.513636510655,  393.5071,       nan,       nan,  396.5332,       nan,       nan,       nan,       nan,  394.4458,  394.6400,       nan
 2014-07-07 11:57:48,   2014.513694444444,  393.2334,       nan,       nan,  396.5346,       nan,       nan,       nan,       nan,  394.4467,  394.6000,       nan
 2014-07-07 12:16:02,   2014.513729134957,  393.4000,       nan,       nan,  396.3786,       nan,       nan,       nan,       nan,  394.0293,  394.5800,       nan
 2014-07-07 13:06:33,   2014.513825247336,  393.3250,       nan,       nan,  396.2303,       nan,       nan,       nan,       nan,  393.9104,  394.5600,       nan
 2014-07-07 13:38:05,   2014.513885242263,  393.4000,       nan,       nan,  396.1073,       nan,       nan,       nan,       nan,  393.9114,  394.5300,       nan
 2014-07-07 13:56:17,   2014.513919869356,  393.0667,       nan,       nan,  395.8875,       nan,       nan,       nan,       nan,  393.7406,  394.5500,       nan
 2014-07-07 14:17:07,   2014.513959506596,  392.9500,       nan,       nan,  395.8875,       nan,       nan,       nan,       nan,  393.7406,  394.5200,       nan
 2014-07-08 06:06:32,   2014.515765854896,  393.0000,       nan,       nan,  396.5867,       nan,       nan,       nan,       nan,  393.3507,  395.2400,       nan
 2014-07-08 06:28:49,   2014.515808250888,  393.0400,       nan,       nan,  396.5867,       nan,       nan,       nan,       nan,  393.3506,  395.2400,       nan
 2014-07-08 06:56:28,   2014.515860857433,  392.9818,       nan,       nan,  396.7814,       nan,       nan,       nan,       nan,  393.5399,  395.1700,       nan
 2014-07-08 07:26:56,   2014.515918822932,  392.9333,       nan,       nan,  396.7821,       nan,       nan,       nan,       nan,  393.5406,  395.1400,       nan
 2014-07-08 07:59:33,   2014.515980878995,  393.0818,       nan,       nan,  396.7837,       nan,       nan,       nan,       nan,  393.6750,  395.0700,       nan
 2014-07-08 08:29:07,   2014.516037132167,  392.8727,       nan,       nan,  396.7836,       nan,       nan,       nan,       nan,  393.6749,  395.0300,       nan
 2014-07-08 08:59:23,   2014.516094717149,  392.9167,       nan,       nan,  396.7842,       nan,       nan,       nan,       nan,  393.6753,  395.0000,       nan
 2014-07-08 09:28:28,   2014.516150050736,  392.7600,       nan,       nan,  396.6235,       nan,       nan,       nan,       nan,  393.3525,  394.9400,       nan
 2014-07-08 09:57:30,   2014.516205289193,  392.9333,       nan,       nan,  396.6251,       nan,       nan,       nan,       nan,  393.3539,  394.9000,       nan
 2014-07-08 10:27:46,   2014.516262874175,  392.8182,       nan,       nan,  396.7365,       nan,       nan,       nan,       nan,  393.4654,  394.8200,       nan
 2014-07-08 10:58:15,   2014.516320871385,  392.8000,       nan,       nan,  396.4474,       nan,       nan,       nan,       nan,  393.3559,  394.8100,       nan
 2014-07-08 11:29:58,   2014.516381215119,  392.8083,       nan,       nan,  396.4489,       nan,       nan,       nan,       nan,  393.3574,  394.7600,       nan
 2014-07-08 12:00:27,   2014.516439212329,  392.9637,       nan,       nan,  396.3222,       nan,       nan,       nan,       nan,  393.0224,  394.7100,       nan
 2014-07-08 12:28:42,   2014.516492960426,  393.0250,       nan,       nan,  396.3222,       nan,       nan,       nan,       nan,  393.0224,  394.6900,       nan
 2014-07-08 12:57:09,   2014.516547089041,  393.1167,       nan,       nan,  396.1707,       nan,       nan,       nan,       nan,  392.8675,  394.6900,       nan
 2014-07-08 13:27:24,   2014.516604642313,  392.8455,       nan,       nan,  396.1725,       nan,       nan,       nan,       nan,  392.8696,  394.6800,       nan
 2014-07-08 13:57:54,   2014.516662671233,  392.9250,       nan,       nan,  395.8544,       nan,       nan,       nan,       nan,  392.6496,  394.7100,       nan
 2014-07-08 14:27:10,   2014.516718353628,  392.8300,       nan,       nan,  395.8567,       nan,       nan,       nan,       nan,  392.6524,  394.7000,       nan
 2014-07-09 06:04:52,   2014.518502409944,  394.5714,       nan,       nan,  397.2082,       nan,       nan,       nan,       nan,  394.3331,  395.9600,       nan
 2014-07-09 06:30:07,   2014.518550450279,  394.4833,       nan,       nan,  397.2082,       nan,       nan,       nan,       nan,  394.3331,  396.0300,       nan
 2014-07-09 07:00:36,   2014.518608447489,  394.5000,       nan,       nan,  397.3639,       nan,       nan,       nan,       nan,  394.5046,  395.9700,       nan
 2014-07-09 07:28:15,   2014.518661054033,  394.2900,       nan,       nan,  397.3634,       nan,       nan,       nan,       nan,  394.5044,  396.0300,       nan
 2014-07-09 07:57:20,   2014.518716387621,  394.1416,       nan,       nan,  397.3586,       nan,       nan,       nan,       nan,  394.5043,  396.0900,       nan
 2014-07-09 08:27:35,   2014.518773940893,  394.0273,       nan,       nan,  397.4649,       nan,       nan,       nan,       nan,  394.6245,  396.0500,       nan
 2014-07-09 08:58:04,   2014.518831938102,  393.8167,       nan,       nan,  397.4644,       nan,       nan,       nan,       nan,  394.6243,  396.1100,       nan
 2014-07-09 09:29:47,   2014.518892281837,  393.7583,       nan,       nan,  397.4361,       nan,       nan,       nan,       nan,  394.8682,  396.1600,       nan
 2014-07-09 10:00:17,   2014.518950310756,  393.6000,       nan,       nan,  397.4353,       nan,       nan,       nan,       nan,  394.8679,  396.2100,       nan
 2014-07-09 10:27:55,   2014.519002885591,  393.6000,       nan,       nan,  397.4355,       nan,       nan,       nan,       nan,  394.8680,  396.2500,       nan
 2014-07-09 10:49:43,   2014.519044361999,  393.6000,       nan,       nan,  397.3745,       nan,       nan,       nan,       nan,  394.8681,  396.2800,       nan
 2014-07-09 11:27:22,   2014.519115994419,  393.9333,       nan,       nan,  397.3745,       nan,       nan,       nan,       nan,  394.8681,  396.3400,       nan
 2014-07-09 11:55:31,   2014.519169552258,  393.7285,       nan,       nan,  397.3739,       nan,       nan,       nan,       nan,  394.8679,  396.3700,       nan
 2014-07-09 12:29:12,   2014.519233637747,  393.6000,       nan,       nan,  397.3348,       nan,       nan,       nan,       nan,  394.5413,  396.4300,       nan
 2014-07-09 13:02:07,   2014.519296264587,  393.4889,       nan,       nan,  397.2279,       nan,       nan,       nan,       nan,  394.4417,  396.5900,       nan
 2014-07-09 13:28:55,   2014.519347253932,  393.3800,       nan,       nan,  397.2287,       nan,       nan,       nan,       nan,  394.4421,  396.6400,       nan
 2014-07-09 14:00:28,   2014.519407280568,  393.4889,       nan,       nan,  397.0483,       nan,       nan,       nan,       nan,  394.3000,  396.8500,       nan
 2014-07-09 14:26:38,   2014.519457064942,  393.6909,       nan,       nan,  397.0475,       nan,       nan,       nan,       nan,  394.2995,  396.8800,       nan
 2014-07-10 06:06:19,   2014.521244894723,  393.4666,       nan,       nan,  397.7619,       nan,       nan,       nan,       nan,  394.6859,  397.2800,       nan
 2014-07-10 06:29:14,   2014.521288495687,  393.6364,       nan,       nan,  397.7635,       nan,       nan,       nan,       nan,  394.6862,  397.2400,       nan
 2014-07-10 06:59:30,   2014.521346080670,  393.5167,       nan,       nan,  397.8928,       nan,       nan,       nan,       nan,  394.8100,  396.9800,       nan
 2014-07-10 07:28:35,   2014.521401414257,  393.7000,       nan,       nan,  397.8940,       nan,       nan,       nan,       nan,  394.8101,  396.9100,       nan
 2014-07-10 07:57:36,   2014.521456621005,  393.5917,       nan,       nan,  397.7112,       nan,       nan,       nan,       nan,  394.8105,  396.8300,       nan
 2014-07-10 08:27:51,   2014.521514174277,  393.4909,       nan,       nan,  397.8080,       nan,       nan,       nan,       nan,  394.8978,  396.6200,       nan
 2014-07-10 08:58:20,   2014.521572171486,  393.3750,       nan,       nan,  397.8087,       nan,       nan,       nan,       nan,  394.8979,  396.5400,       nan
 2014-07-10 09:30:03,   2014.521632515221,  393.4500,       nan,       nan,  397.6028,       nan,       nan,       nan,       nan,  394.6939,  396.4500,       nan
 2014-07-10 10:00:34,   2014.521690575850,  393.4727,       nan,       nan,  397.6048,       nan,       nan,       nan,       nan,  394.6945,  396.3600,       nan
 2014-07-10 10:28:12,   2014.521743150685,  393.4200,       nan,       nan,  397.6076,       nan,       nan,       nan,       nan,  394.6953,  396.2800,       nan
 2014-07-10 10:57:15,   2014.521798420852,  393.3583,       nan,       nan,  397.3754,       nan,       nan,       nan,       nan,  394.6959,  396.2000,       nan
 2014-07-10 11:27:30,   2014.521855974125,  393.4637,       nan,       nan,  397.3778,       nan,       nan,       nan,       nan,  394.6965,  396.1100,       nan
 2014-07-10 11:58:00,   2014.521914003044,  393.5833,       nan,       nan,  397.3807,       nan,       nan,       nan,       nan,  394.6973,  396.0100,       nan
 2014-07-10 12:29:41,   2014.521974283359,  393.5500,       nan,       nan,  397.1758,       nan,       nan,       nan,       nan,  394.1129,  395.9300,       nan
 2014-07-10 13:00:11,   2014.522032312278,  393.5636,       nan,       nan,  397.0595,       nan,       nan,       nan,       nan,  394.0041,  395.9400,       nan
 2014-07-10 13:29:12,   2014.522087519026,  393.4909,       nan,       nan,  397.0612,       nan,       nan,       nan,       nan,  394.0049,  395.8700,       nan
 2014-07-10 13:58:06,   2014.522142503805,  393.3637,       nan,       nan,  396.6728,       nan,       nan,       nan,       nan,  393.8505,  395.9300,       nan
 2014-07-10 14:25:56,   2014.522195459158,  393.3200,       nan,       nan,  396.6753,       nan,       nan,       nan,       nan,  393.8516,  395.8600,       nan
 2014-07-11 06:06:44,   2014.523985413496,  393.2800,       nan,       nan,  395.9688,       nan,       nan,       nan,       nan,  391.7983,  394.5000,       nan
 2014-07-11 06:29:26,   2014.524028602232,  393.2083,       nan,       nan,  395.9699,       nan,       nan,       nan,       nan,  391.7981,  394.4700,       nan
 2014-07-11 06:59:56,   2014.524086631152,  393.1546,       nan,       nan,  396.1756,       nan,       nan,       nan,       nan,  392.0452,  394.3700,       nan
 2014-07-11 07:28:57,   2014.524141837900,  393.0909,       nan,       nan,  396.1772,       nan,       nan,       nan,       nan,  392.0448,  394.3100,       nan
 2014-07-11 07:57:51,   2014.524196822679,  393.1727,       nan,       nan,  395.9577,       nan,       nan,       nan,       nan,  392.0445,  394.2600,       nan
 2014-07-11 08:26:53,   2014.524252061136,  393.2091,       nan,       nan,  396.1050,       nan,       nan,       nan,       nan,  392.2182,  394.1300,       nan
 2014-07-11 08:57:21,   2014.524310026636,  393.1833,       nan,       nan,  396.1077,       nan,       nan,       nan,       nan,  392.2176,  394.0600,       nan
 2014-07-11 09:26:37,   2014.524365709031,  393.2400,       nan,       nan,  395.8876,       nan,       nan,       nan,       nan,  391.9588,  393.9600,       nan
 2014-07-11 10:09:00,   2014.524446347032,  393.1500,       nan,       nan,  395.8893,       nan,       nan,       nan,       nan,  391.9594,  393.8400,       nan
 2014-07-11 10:26:32,   2014.524479705733,  393.0500,       nan,       nan,  395.8892,       nan,       nan,       nan,       nan,  391.9594,  393.7900,       nan
 2014-07-11 11:00:07,   2014.524543600964,  393.0833,       nan,       nan,  395.6615,       nan,       nan,       nan,       nan,  391.9609,  393.6900,       nan
 2014-07-11 11:30:36,   2014.524601598174,  392.8727,       nan,       nan,  395.6663,       nan,       nan,       nan,       nan,  391.9626,  393.6000,       nan
 2014-07-11 11:58:14,   2014.524654173009,  392.9800,       nan,       nan,  395.6694,       nan,       nan,       nan,       nan,  391.9638,  393.5100,       nan
 2014-07-11 12:27:18,   2014.524709474886,  392.9250,       nan,       nan,  395.4809,       nan,       nan,       nan,       nan,  392.0785,  393.4200,       nan
 2014-07-11 12:57:33,   2014.524767028158,  392.9364,       nan,       nan,  395.3204,       nan,       nan,       nan,       nan,  391.8828,  393.3700,       nan
 2014-07-11 13:28:02,   2014.524825025368,  392.8500,       nan,       nan,  395.3209,       nan,       nan,       nan,       nan,  391.8832,  393.2900,       nan
 2014-07-11 13:59:45,   2014.524885369102,  392.9000,       nan,       nan,  394.9437,       nan,       nan,       nan,       nan,  391.6079,  393.2600,       nan
 2014-07-11 14:26:09,   2014.524935597412,  392.8750,       nan,       nan,  394.9431,       nan,       nan,       nan,       nan,  391.6073,  393.2100,       nan
 2014-07-12 06:05:34,   2014.526722919838,  392.6750,       nan,       nan,  396.1699,       nan,       nan,       nan,       nan,  392.4330,  394.3200,       nan
 2014-07-12 06:31:58,   2014.526773148148,  392.7000,       nan,       nan,  396.1717,       nan,       nan,       nan,       nan,  392.4338,  394.3600,       nan
 2014-07-12 06:58:22,   2014.526823376459,  392.6500,       nan,       nan,  396.3666,       nan,       nan,       nan,       nan,  392.6696,  394.3200,       nan
 2014-07-12 07:30:04,   2014.526883688483,  392.6083,       nan,       nan,  396.2434,       nan,       nan,       nan,       nan,  392.6703,  394.3300,       nan
 2014-07-12 08:00:33,   2014.526941685692,  392.3454,       nan,       nan,  396.2450,       nan,       nan,       nan,       nan,  392.6709,  394.3300,       nan
 2014-07-12 08:28:10,   2014.526994228818,  392.4200,       nan,       nan,  396.3837,       nan,       nan,       nan,       nan,  392.8359,  394.2500,       nan
 2014-07-12 08:57:14,   2014.527049530695,  392.4583,       nan,       nan,  396.3842,       nan,       nan,       nan,       nan,  392.8361,  394.2100,       nan
 2014-07-12 09:27:30,   2014.527107115677,  392.3000,       nan,       nan,  396.2275,       nan,       nan,       nan,       nan,  392.5752,  394.1900,       nan
 2014-07-12 09:57:58,   2014.527165081177,  392.4333,       nan,       nan,  396.2275,       nan,       nan,       nan,       nan,  392.5752,  394.1500,       nan
 2014-07-12 10:29:42,   2014.527225456621,  392.6000,       nan,       nan,  396.2281,       nan,       nan,       nan,       nan,  392.5757,  394.1200,       nan
 2014-07-12 11:00:11,   2014.527283453830,  392.6546,       nan,       nan,  396.0256,       nan,       nan,       nan,       nan,  392.5768,  394.0900,       nan
 2014-07-12 11:27:50,   2014.527336060376,  392.8000,       nan,       nan,  396.0263,       nan,       nan,       nan,       nan,  392.5774,  394.0700,       nan
 2014-07-12 11:58:09,   2014.527393740487,  392.8364,       nan,       nan,  396.0281,       nan,       nan,       nan,       nan,  392.5790,  394.0400,       nan
 2014-07-12 12:27:12,   2014.527449010654,  392.6636,       nan,       nan,  395.8403,       nan,       nan,       nan,       nan,  392.3653,  394.0300,       nan
 2014-07-12 12:57:40,   2014.527506976154,  392.6833,       nan,       nan,  395.6925,       nan,       nan,       nan,       nan,  392.1866,  394.0600,       nan
 2014-07-12 13:29:23,   2014.527567319888,  392.7250,       nan,       nan,  395.6925,       nan,       nan,       nan,       nan,  392.1866,  394.0500,       nan
 2014-07-12 13:59:53,   2014.527625348808,  392.6182,       nan,       nan,  395.3049,       nan,       nan,       nan,       nan,  391.9309,  394.1100,       nan
 2014-07-12 14:26:04,   2014.527675164891,  392.4778,       nan,       nan,  395.3045,       nan,       nan,       nan,       nan,  391.9304,  394.0900,       nan
 2014-07-13 09:54:55,   2014.529899004312,  391.7333,       nan,       nan,  395.9404,       nan,       nan,       nan,       nan,  392.7937,  393.7100,       nan
 2014-07-13 11:42:03,   2014.530102834855,  390.5000,       nan,       nan,  395.8133,       nan,       nan,       nan,       nan,  392.7988,  393.4800,       nan
 2014-07-14 06:08:50,   2014.532208587012,  393.0000,       nan,       nan,  395.7403,       nan,       nan,       nan,       nan,  392.6274,  395.0100,       nan
 2014-07-14 06:29:59,   2014.532248826738,  393.1167,       nan,       nan,  395.7405,       nan,       nan,       nan,       nan,  392.6276,  394.9800,       nan
 2014-07-14 07:00:30,   2014.532306887367,  392.9909,       nan,       nan,  395.7409,       nan,       nan,       nan,       nan,  392.6279,  394.9400,       nan
 2014-07-14 07:28:10,   2014.532359525622,  392.8700,       nan,       nan,  395.9244,       nan,       nan,       nan,       nan,  392.8164,  394.7700,       nan
 2014-07-14 07:57:16,   2014.532414890918,  392.9417,       nan,       nan,  395.7673,       nan,       nan,       nan,       nan,  392.8166,  394.7200,       nan
 2014-07-14 08:27:31,   2014.532472444191,  393.2000,       nan,       nan,  395.9015,       nan,       nan,       nan,       nan,  392.9501,  394.5800,       nan
 2014-07-14 08:58:02,   2014.532530504820,  393.0667,       nan,       nan,  395.9021,       nan,       nan,       nan,       nan,  392.9503,  394.5300,       nan
 2014-07-14 09:29:45,   2014.532590848554,  393.0000,       nan,       nan,  395.7305,       nan,       nan,       nan,       nan,  393.0932,  394.4300,       nan